�������l�o���
Date,Time,MP-1(��Sv/h),MP-2(��Sv/h),MP-3(��Sv/h),MP-4(��Sv/h),MP-5(��Sv/h),MP-6(��Sv/h),MP-7(��Sv/h),MP-8(��Sv/h),����,����(m/s),���J
2023/06/23,00:00,0.509,0.760,0.470,0.919,0.657,0.316,0.549,0.520,���k��,1.5,�L
2023/06/23,00:10,0.510,0.762,0.471,0.919,0.659,0.314,0.547,0.520,�k��,2.3,�L
2023/06/23,00:20,0.509,0.762,0.468,0.921,0.657,0.315,0.549,0.520,�k��,2.5,��
2023/06/23,00:30,0.508,0.759,0.470,0.917,0.658,0.315,0.548,0.522,�k��,2.6,��
2023/06/23,00:40,0.509,0.763,0.469,0.917,0.659,0.316,0.548,0.521,�k�k��,2.0,�L
2023/06/23,00:50,0.511,0.761,0.469,0.918,0.659,0.315,0.549,0.524,�k,2.3,�L
2023/06/23,01:00,0.509,0.762,0.469,0.918,0.661,0.316,0.547,0.523,�k�k��,3.5,��
2023/06/23,01:10,0.510,0.761,0.467,0.921,0.659,0.314,0.550,0.524,�k�k��,1.7,��
2023/06/23,01:20,0.510,0.762,0.468,0.917,0.659,0.315,0.547,0.523,���k��,1.7,��
2023/06/23,01:30,0.508,0.761,0.468,0.919,0.661,0.314,0.548,0.525,���k��,0.9,��
2023/06/23,01:40,0.511,0.763,0.468,0.919,0.662,0.314,0.550,0.525,�k��,4.5,��
2023/06/23,01:50,0.510,0.762,0.469,0.919,0.662,0.315,0.549,0.524,�k�k��,4.0,�L
2023/06/23,02:00,0.511,0.763,0.469,0.920,0.661,0.315,0.549,0.524,�k��,3.7,��
2023/06/23,02:10,0.511,0.763,0.468,0.920,0.662,0.314,0.549,0.524,�k��,3.9,��
2023/06/23,02:20,0.510,0.762,0.468,0.919,0.663,0.314,0.551,0.524,���k��,5.2,��
2023/06/23,02:30,0.509,0.763,0.469,0.919,0.661,0.316,0.550,0.524,�k��,3.9,��
2023/06/23,02:40,0.510,0.764,0.468,0.920,0.661,0.313,0.551,0.524,�k�k��,2.9,��
2023/06/23,02:50,0.510,0.763,0.470,0.922,0.661,0.315,0.551,0.521,�k��,4.0,��
2023/06/23,03:00,0.510,0.765,0.470,0.921,0.663,0.314,0.551,0.524,�k��,3.5,��
2023/06/23,03:10,0.510,0.764,0.470,0.922,0.663,0.315,0.552,0.522,�k�k��,4.2,�L
2023/06/23,03:20,0.510,0.764,0.468,0.921,0.664,0.315,0.551,0.524,�k�k��,4.4,�L
2023/06/23,03:30,0.509,0.764,0.471,0.922,0.664,0.315,0.552,0.524,�k��,6.1,�L
2023/06/23,03:40,0.511,0.764,0.470,0.923,0.663,0.315,0.552,0.523,�k��,6.3,�L
2023/06/23,03:50,0.512,0.765,0.471,0.923,0.664,0.315,0.553,0.525,�k��,6.6,��
2023/06/23,04:00,0.509,0.762,0.469,0.924,0.663,0.315,0.552,0.523,�k��,6.9,��
2023/06/23,04:10,0.511,0.764,0.472,0.924,0.665,0.315,0.551,0.522,�k�k��,4.5,�L
2023/06/23,04:20,0.512,0.763,0.470,0.924,0.665,0.315,0.552,0.525,�k�k��,3.7,�L
2023/06/23,04:30,0.511,0.766,0.469,0.922,0.665,0.316,0.552,0.522,�k�k��,4.1,��
2023/06/23,04:40,0.513,0.766,0.469,0.926,0.666,0.315,0.551,0.523,�k��,4.3,��
2023/06/23,04:50,0.513,0.764,0.470,0.923,0.664,0.317,0.553,0.524,�k��,3.9,��
2023/06/23,05:00,0.511,0.766,0.470,0.924,0.666,0.316,0.552,0.523,�k�k��,4.5,��
2023/06/23,05:10,0.512,0.764,0.469,0.923,0.665,0.315,0.552,0.522,�k��,3.9,��
2023/06/23,05:20,0.514,0.767,0.470,0.922,0.665,0.316,0.551,0.524,�k��,5.0,��
2023/06/23,05:30,0.511,0.767,0.471,0.926,0.665,0.315,0.552,0.525,�k��,4.7,��
2023/06/23,05:40,0.513,0.765,0.470,0.924,0.665,0.317,0.552,0.523,�k��,6.3,��
2023/06/23,05:50,0.512,0.766,0.469,0.925,0.665,0.315,0.550,0.524,�k��,5.6,��
2023/06/23,06:00,0.512,0.766,0.472,0.924,0.666,0.314,0.551,0.522,�k��,4.4,��
2023/06/23,06:10,0.510,0.765,0.470,0.925,0.666,0.314,0.551,0.524,�k��,4.7,��
2023/06/23,06:20,0.512,0.766,0.470,0.925,0.668,0.316,0.552,0.522,�k�k��,4.4,��
2023/06/23,06:30,0.513,0.769,0.471,0.924,0.667,0.315,0.552,0.524,�k�k��,5.1,��
2023/06/23,06:40,0.511,0.767,0.470,0.925,0.666,0.316,0.551,0.524,�k�k��,4.8,��
2023/06/23,06:50,0.512,0.766,0.471,0.926,0.667,0.314,0.552,0.523,�k�k��,5.7,��
2023/06/23,07:00,0.511,0.765,0.472,0.926,0.665,0.314,0.552,0.523,�k�k��,5.4,��
2023/06/23,07:10,0.510,0.766,0.471,0.926,0.667,0.315,0.551,0.522,�k�k��,4.5,��
2023/06/23,07:20,0.511,0.765,0.472,0.924,0.666,0.315,0.551,0.522,�k�k��,3.0,��
2023/06/23,07:30,0.509,0.765,0.471,0.925,0.665,0.316,0.552,0.522,�k�k��,2.3,��
2023/06/23,07:40,0.509,0.764,0.471,0.928,0.666,0.314,0.551,0.522,�k,2.5,��
2023/06/23,07:50,0.510,0.765,0.470,0.924,0.665,0.315,0.552,0.522,�k�k��,4.0,��
2023/06/23,08:00,0.512,0.765,0.472,0.927,0.666,0.314,0.551,0.523,�k�k��,3.8,��
2023/06/23,08:10,0.511,0.764,0.471,0.926,0.665,0.314,0.553,0.521,�k�k��,4.4,��
2023/06/23,08:20,0.510,0.766,0.471,0.925,0.668,0.316,0.551,0.522,�k�k��,4.1,��
2023/06/23,08:30,0.511,0.764,0.471,0.926,0.666,0.314,0.553,0.522,�k�k��,4.0,��
2023/06/23,08:40,0.511,0.764,0.472,0.928,0.668,0.315,0.553,0.521,�k�k��,3.9,��
2023/06/23,08:50,0.510,0.765,0.469,0.926,0.666,0.315,0.553,0.522,�k�k��,3.7,��
2023/06/23,09:00,0.512,0.764,0.470,0.925,0.666,0.315,0.552,0.522,�k,4.0,��
2023/06/23,09:10,0.511,0.763,0.470,0.926,0.664,0.314,0.555,0.523,�k,3.8,��
2023/06/23,09:20,0.512,0.764,0.470,0.925,0.667,0.315,0.553,0.523,�k,3.4,��
2023/06/23,09:30,0.513,0.764,0.470,0.924,0.665,0.315,0.554,0.521,�k,3.1,��
2023/06/23,09:40,0.511,0.766,0.470,0.927,0.665,0.317,0.552,0.522,�k,3.3,��
2023/06/23,09:50,0.512,0.764,0.467,0.926,0.666,0.314,0.554,0.522,�k�k��,3.3,��
2023/06/23,10:00,0.512,0.767,0.470,0.927,0.667,0.315,0.553,0.522,�k,3.3,��
2023/06/23,10:10,0.511,0.764,0.470,0.926,0.667,0.315,0.552,0.522,�k,3.6,��
2023/06/23,10:20,0.511,0.766,0.471,0.928,0.667,0.316,0.552,0.522,�k�k��,4.3,��
2023/06/23,10:30,0.512,0.768,0.470,0.927,0.668,0.316,0.552,0.521,�k�k��,4.5,��
2023/06/23,10:40,0.512,0.767,0.471,0.926,0.669,0.315,0.553,0.523,�k�k��,4.5,��
2023/06/23,10:50,0.512,0.767,0.471,0.927,0.668,0.314,0.553,0.523,�k�k��,4.1,��
2023/06/23,11:00,0.512,0.768,0.471,0.929,0.667,0.315,0.554,0.522,�k�k��,3.9,��
2023/06/23,11:10,0.512,0.768,0.472,0.927,0.668,0.314,0.552,0.523,�k�k��,3.8,��
2023/06/23,11:20,0.509,0.768,0.471,0.927,0.668,0.316,0.553,0.523,�k�k��,3.5,��
2023/06/23,11:30,0.512,0.767,0.472,0.926,0.669,0.314,0.555,0.523,�k�k��,3.0,��
2023/06/23,11:40,0.510,0.769,0.472,0.926,0.667,0.314,0.553,0.523,�k�k��,2.5,��
2023/06/23,11:50,0.509,0.769,0.472,0.924,0.671,0.315,0.553,0.523,�k�k��,2.8,��
2023/06/23,12:00,0.509,0.768,0.473,0.926,0.670,0.316,0.553,0.522,�k��,3.1,�L
2023/06/23,12:10,0.511,0.770,0.473,0.925,0.669,0.314,0.553,0.523,�k�k��,3.5,�L
2023/06/23,12:20,0.510,0.770,0.473,0.928,0.669,0.317,0.555,0.523,�k�k��,3.1,��
2023/06/23,12:30,0.510,0.770,0.474,0.927,0.670,0.315,0.554,0.523,�k��,3.3,�L
2023/06/23,12:40,0.512,0.770,0.474,0.928,0.670,0.316,0.553,0.523,�k,2.8,��
2023/06/23,12:50,0.512,0.770,0.474,0.930,0.673,0.316,0.553,0.523,���k��,2.6,��
2023/06/23,13:00,0.511,0.771,0.473,0.926,0.671,0.316,0.556,0.525,���k��,2.2,��
2023/06/23,13:10,0.513,0.770,0.475,0.923,0.672,0.316,0.556,0.524,�k�k��,3.1,��
2023/06/23,13:20,0.513,0.771,0.474,0.928,0.672,0.316,0.555,0.524,�k�k��,2.9,��
2023/06/23,13:30,0.514,0.770,0.475,0.926,0.672,0.316,0.556,0.526,�k��,2.8,��
2023/06/23,13:40,0.512,0.773,0.475,0.928,0.671,0.317,0.556,0.526,�k�k��,2.6,��
2023/06/23,13:50,0.513,0.771,0.474,0.926,0.673,0.316,0.555,0.524,�k��,2.8,��
2023/06/23,14:00,0.511,0.772,0.474,0.928,0.673,0.316,0.556,0.526,�k�k��,3.2,��
2023/06/23,14:10,0.513,0.771,0.475,0.925,0.671,0.315,0.557,0.524,�k��,3.0,��
2023/06/23,14:20,0.512,0.774,0.474,0.926,0.673,0.316,0.557,0.525,�k��,2.6,��
2023/06/23,14:30,0.511,0.772,0.473,0.929,0.673,0.316,0.556,0.525,�k��,2.3,��
2023/06/23,14:40,0.512,0.772,0.475,0.926,0.674,0.316,0.555,0.525,�k��,2.8,��
2023/06/23,14:50,0.511,0.773,0.476,0.929,0.671,0.317,0.557,0.524,�k��,2.0,��
2023/06/23,15:00,0.511,0.772,0.475,0.929,0.673,0.318,0.556,0.525,�k�k��,1.9,��
2023/06/23,15:10,0.511,0.771,0.474,0.931,0.673,0.316,0.556,0.526,�k��,2.0,��
2023/06/23,15:20,0.512,0.772,0.475,0.929,0.674,0.318,0.556,0.526,�k��,2.6,��
2023/06/23,15:30,0.512,0.774,0.475,0.931,0.673,0.315,0.556,0.525,���k��,2.2,��
2023/06/23,15:40,0.512,0.775,0.475,0.930,0.674,0.317,0.557,0.525,�k��,2.3,��
2023/06/23,15:50,0.513,0.774,0.475,0.930,0.672,0.316,0.556,0.525,���k��,2.3,��
2023/06/23,16:00,0.511,0.774,0.474,0.930,0.674,0.316,0.556,0.525,���k��,2.0,��
2023/06/23,16:10,0.511,0.776,0.475,0.929,0.675,0.317,0.556,0.525,��,1.5,��
2023/06/23,16:20,0.512,0.775,0.475,0.932,0.673,0.317,0.556,0.524,��,1.4,��
2023/06/23,16:30,0.513,0.774,0.474,0.933,0.674,0.317,0.555,0.525,���쓌,1.7,��
2023/06/23,16:40,0.514,0.775,0.474,0.931,0.672,0.317,0.556,0.526,�쓌,2.2,��
2023/06/23,16:50,0.512,0.773,0.474,0.930,0.672,0.316,0.556,0.525,���쓌,1.4,��
2023/06/23,17:00,0.511,0.775,0.475,0.932,0.674,0.316,0.557,0.525,�쓌,1.2,��
2023/06/23,17:10,0.513,0.774,0.475,0.930,0.673,0.315,0.556,0.525,���쓌,2.2,��
2023/06/23,17:20,0.512,0.776,0.475,0.929,0.673,0.316,0.557,0.526,�쓌,1.7,��
2023/06/23,17:30,0.513,0.773,0.475,0.931,0.673,0.317,0.556,0.524,�쓌,1.7,��
2023/06/23,17:40,0.513,0.777,0.474,0.931,0.674,0.316,0.555,0.524,���쓌,1.7,��
2023/06/23,17:50,0.512,0.774,0.475,0.930,0.674,0.316,0.557,0.524,��쓌,1.0,��
2023/06/23,18:00,0.513,0.775,0.477,0.930,0.673,0.317,0.556,0.525,�쓌,1.7,��
2023/06/23,18:10,0.511,0.776,0.476,0.934,0.674,0.317,0.556,0.524,��쓌,2.2,��
2023/06/23,18:20,0.512,0.774,0.476,0.933,0.673,0.317,0.555,0.524,���쓌,1.6,��
2023/06/23,18:30,0.513,0.776,0.476,0.932,0.674,0.316,0.555,0.526,���쓌,1.5,��
2023/06/23,18:40,0.513,0.775,0.477,0.931,0.673,0.316,0.555,0.524,���쓌,1.2,��
2023/06/23,18:50,0.515,0.774,0.477,0.933,0.674,0.317,0.554,0.525,�쓌,1.1,��
2023/06/23,19:00,0.514,0.777,0.477,0.934,0.675,0.316,0.555,0.525,���쓌,1.5,��
2023/06/23,19:10,0.513,0.776,0.478,0.934,0.676,0.317,0.555,0.526,���쓌,0.6,��
2023/06/23,19:20,0.512,0.777,0.477,0.933,0.675,0.317,0.556,0.527,�쓌,1.2,��
2023/06/23,19:30,0.513,0.776,0.477,0.933,0.676,0.317,0.555,0.526,��쓌,1.2,��
2023/06/23,19:40,0.515,0.778,0.478,0.931,0.674,0.317,0.556,0.526,�쓌,1.5,��
2023/06/23,19:50,0.514,0.777,0.480,0.934,0.675,0.317,0.555,0.524,���쓌,1.2,��
2023/06/23,20:00,0.514,0.778,0.478,0.933,0.675,0.318,0.556,0.525,���쓌,1.3,��
2023/06/23,20:10,0.514,0.777,0.476,0.933,0.672,0.317,0.555,0.526,���쓌,0.9,�L
2023/06/23,20:20,0.514,0.777,0.478,0.933,0.673,0.317,0.555,0.525,���쓌,0.9,��
2023/06/23,20:30,0.514,0.778,0.477,0.933,0.677,0.317,0.556,0.525,��,0.9,�L
2023/06/23,20:40,0.515,0.781,0.477,0.934,0.677,0.319,0.556,0.525,-,CALM,�L
2023/06/23,20:50,0.516,0.778,0.478,0.934,0.677,0.319,0.557,0.526,�쓌,0.6,�L
2023/06/23,21:00,0.515,0.780,0.479,0.933,0.677,0.318,0.556,0.526,-,CALM,�L
2023/06/23,21:10,0.515,0.780,0.480,0.936,0.677,0.317,0.555,0.524,�k�k��,0.6,�L
2023/06/23,21:20,0.513,0.777,0.478,0.936,0.677,0.320,0.554,0.526,�k�k��,0.9,�L
2023/06/23,21:30,0.516,0.778,0.477,0.936,0.676,0.317,0.555,0.524,�k�k��,1.2,�L
2023/06/23,21:40,0.514,0.775,0.477,0.934,0.675,0.319,0.554,0.525,�k,0.8,�L
2023/06/23,21:50,0.514,0.776,0.476,0.932,0.676,0.319,0.554,0.525,�k��,0.9,�L
2023/06/23,22:00,0.515,0.777,0.477,0.934,0.676,0.320,0.554,0.523,-,CALM,�L
2023/06/23,22:10,0.516,0.777,0.479,0.935,0.676,0.320,0.553,0.525,-,CALM,�L
2023/06/23,22:20,0.513,0.774,0.479,0.934,0.674,0.319,0.554,0.524,���쓌,0.9,�L
2023/06/23,22:30,0.512,0.776,0.479,0.934,0.676,0.320,0.555,0.524,-,CALM,�L
2023/06/23,22:40,0.513,0.775,0.478,0.934,0.675,0.320,0.553,0.525,-,CALM,�L
2023/06/23,22:50,0.513,0.775,0.478,0.933,0.675,0.319,0.554,0.526,��쐼,0.6,�L
2023/06/23,23:00,0.512,0.773,0.477,0.934,0.677,0.320,0.554,0.526,�쓌,1.1,�L
2023/06/23,23:10,0.512,0.775,0.480,0.933,0.675,0.319,0.553,0.524,-,CALM,�L
2023/06/23,23:20,0.511,0.775,0.476,0.931,0.675,0.319,0.554,0.526,��쓌,0.9,�L
2023/06/23,23:30,0.512,0.774,0.476,0.931,0.673,0.318,0.553,0.524,��,1.4,�L
2023/06/23,23:40,0.512,0.772,0.477,0.932,0.673,0.316,0.554,0.525,��쐼,1.7,�L
2023/06/23,23:50,0.514,0.770,0.477,0.933,0.673,0.317,0.554,0.524,��쐼,1.1,�L
